CDT,Max TemperatureF,Mean TemperatureF,Min TemperatureF,Max Dew PointF,MeanDew PointF,Min DewpointF,Max Humidity, Mean Humidity, Min Humidity, Max Sea Level PressureIn, Mean Sea Level PressureIn, Min Sea Level PressureIn, Max VisibilityMiles, Mean VisibilityMiles, Min VisibilityMiles, Max Wind SpeedMPH, Mean Wind SpeedMPH, Max Gust SpeedMPH,PrecipitationIn, CloudCover, Events, WindDirDegrees
2013-3-1,51,43,35,30,29,27,75,58,40,30.10,30.06,30.00,10,10,10,16,7,,0.00,4,,314
2013-3-2,44,37,30,28,26,23,86,62,46,30.14,30.09,30.05,10,10,10,15,7,18,0.00,7,,287
2013-3-3,48,41,34,27,23,19,72,51,31,30.18,30.13,30.08,10,10,10,16,9,22,0.00,4,,301
2013-3-4,64,46,28,43,31,24,89,58,28,30.22,30.15,30.06,10,10,10,14,5,20,0.00,2,,161
2013-3-5,73,58,40,59,52,34,88,78,49,30.10,30.02,29.88,10,10,7,25,8,31,0.01,7,Rain,210
2013-3-6,53,45,37,35,27,24,87,52,35,30.24,30.17,30.09,10,10,10,17,10,29,0.00,0,,309
2013-3-7,64,48,32,32,29,26,82,52,24,30.32,30.25,30.21,10,10,10,10,6,,0.00,0,,327
2013-3-8,70,52,34,35,29,21,87,41,15,30.31,30.24,30.19,10,8,2,9,5,,0.00,0,Rain,5
2013-3-9,68,54,41,41,35,32,81,54,28,30.27,30.20,30.15,10,7,1,12,6,18,0.00,2,,73
2013-3-10,77,66,54,50,48,38,78,57,37,30.15,30.09,30.03,10,10,10,17,9,22,0.00,3,,136
2013-3-11,69,60,49,61,55,46,100,90,64,30.03,29.87,29.80,10,6,1,18,8,26,1.27,7,Rain,319
2013-3-12,64,52,41,45,35,31,88,59,29,30.15,30.03,29.92,10,10,10,16,10,20,0.00,1,,318
2013-3-13,64,51,38,36,29,20,82,41,21,30.30,30.23,30.16,10,10,10,20,8,24,0.00,0,,308
2013-3-14,62,48,36,30,22,16,62,40,17,30.42,30.33,30.26,10,10,10,16,7,20,0.00,0,,335
2013-3-15,74,54,34,46,38,30,87,56,29,30.30,30.21,30.11,10,10,10,15,6,17,0.00,0,,211
2013-3-16,76,60,44,55,47,43,100,77,34,30.14,30.08,30.00,10,7,0,22,6,23,0.00,0,Fog,202
2013-3-17,70,62,55,64,59,55,100,92,73,30.07,30.01,29.96,10,7,0,13,4,17,0.00,7,Fog-Rain,160
2013-3-18,79,69,58,66,60,57,100,87,58,29.99,29.93,29.81,10,9,1,22,7,32,0.33,7,Rain-Thunderstorm,150
2013-3-19,75,66,56,59,52,33,100,77,31,30.07,29.98,29.85,10,9,1,21,7,33,0.16,4,Rain-Thunderstorm,345
2013-3-20,66,56,48,35,30,28,53,39,25,30.12,30.03,29.97,10,10,10,15,8,,0.00,2,,356
2013-3-21,63,51,39,32,25,18,71,40,18,30.04,29.98,29.92,10,10,10,13,7,18,0.00,2,,324
2013-3-22,57,50,44,42,32,23,75,48,32,30.03,29.98,29.95,10,10,10,15,8,21,0.00,7,Rain,69
2013-3-23,63,56,50,56,52,43,100,86,67,29.94,29.81,29.66,10,10,2,15,7,,0.20,8,Rain-Thunderstorm,71
2013-3-24,79,66,46,68,60,30,100,92,47,29.87,29.58,29.52,10,4,0,20,6,34,0.09,6,Fog-Rain-Thunderstorm,225
2013-3-25,57,48,38,31,23,17,65,41,23,30.18,30.01,29.89,10,10,10,22,12,31,0.00,1,,295
2013-3-26,53,42,31,25,23,22,73,46,30,30.35,30.25,30.19,10,10,10,18,9,24,0.00,1,,312
2013-3-27,59,44,29,30,25,22,81,50,26,30.42,30.34,30.27,10,10,10,13,6,17,0.00,0,,324
2013-3-28,68,50,33,36,31,29,85,50,23,30.37,30.31,30.24,10,10,10,9,5,,0.00,0,,353
2013-3-29,74,56,38,43,36,32,88,51,23,30.35,30.28,30.19,10,10,10,15,4,,0.00,1,,210
2013-3-30,75,60,45,56,50,43,100,77,42,30.23,30.17,30.09,10,8,0,15,3,21,0.00,4,Fog,189
2013-3-31,79,66,53,63,58,51,100,77,49,30.09,30.00,29.91,10,9,0,20,6,26,0.01,4,Fog-Rain,190